Hourly Weather Lucknow

Today, 15 May, Saturday

Time Temperature Precipitation Wind Pressure Humidity
00:00 +34°C° 0 mm 2 mps 740 mmHg 34%
01:00 +33°C° 0 mm 1 mps 740 mmHg 35%
02:00 +32°C° 0 mm 1 mps 740 mmHg 36%
03:00 +32°C° 0 mm 1 mps 741 mmHg 37%
04:00 +32°C° 0 mm 1 mps 741 mmHg 37%
05:00 +32°C° 0 mm 2 mps 741 mmHg 37%
06:00 +34°C° 0 mm 2 mps 742 mmHg 34%
07:00 +36°C° 0 mm 2 mps 743 mmHg 31%
08:00 +37°C° 0 mm 2 mps 743 mmHg 28%
09:00 +38°C° 0 mm 2 mps 743 mmHg 25%
10:00 +40°C° 0 mm 2 mps 743 mmHg 23%
11:00 +41°C° 0 mm 2 mps 742 mmHg 20%
12:00 +42°C° 0 mm 2 mps 741 mmHg 18%
13:00 +43°C° 0 mm 2 mps 741 mmHg 17%
14:00 +45°C° 0 mm 2 mps 740 mmHg 15%
15:00 +44°C° 0 mm 3 mps 740 mmHg 15%
16:00 +44°C° 0 mm 4 mps 739 mmHg 15%
17:00 +43°C° 0 mm 4 mps 739 mmHg 16%
18:00 +43°C° 0 mm 4 mps 739 mmHg 17%
19:00 +42°C° 0 mm 3 mps 740 mmHg 18%
20:00 +40°C° 0 mm 2 mps 740 mmHg 19%
21:00 +39°C° 0 mm 2 mps 741 mmHg 20%
22:00 +38°C° 0 mm 2 mps 741 mmHg 22%
23:00 +38°C° 0 mm 2 mps 741 mmHg 23%

Tomorrow, 16 May, Sunday

Time Temperature Precipitation Wind Pressure Humidity
00:00 +37°C° 0 mm 2 mps 741 mmHg 24%
01:00 +37°C° 0 mm 2 mps 741 mmHg 25%
02:00 +36°C° 0 mm 2 mps 740 mmHg 26%
03:00 +36°C° 0 mm 2 mps 741 mmHg 27%
04:00 +35°C° 0 mm 2 mps 741 mmHg 28%
05:00 +34°C° 0 mm 1 mps 741 mmHg 29%
06:00 +36°C° 0 mm 2 mps 742 mmHg 26%
07:00 +38°C° 0 mm 2 mps 742 mmHg 23%
08:00 +40°C° 0 mm 2 mps 742 mmHg 19%
09:00 +42°C° 0 mm 2 mps 742 mmHg 18%
10:00 +43°C° 0 mm 1 mps 742 mmHg 16%
11:00 +45°C° 0 mm 1 mps 742 mmHg 14%
12:00 +46°C° 0 mm 2 mps 741 mmHg 14%
13:00 +47°C° 0 mm 2 mps 740 mmHg 13%
14:00 +47°C° 0 mm 3 mps 740 mmHg 12%
15:00 +47°C° 0 mm 3 mps 739 mmHg 12%
16:00 +48°C° 0 mm 4 mps 739 mmHg 11%
17:00 +48°C° 0 mm 4 mps 739 mmHg 11%
18:00 +45°C° 0 mm 4 mps 739 mmHg 12%
19:00 +44°C° 0 mm 3 mps 740 mmHg 14%
20:00 +41°C° 0 mm 2 mps 740 mmHg 15%
21:00 +41°C° 0 mm 2 mps 740 mmHg 16%
22:00 +40°C° 0 mm 1 mps 740 mmHg 17%
23:00 +39°C° 0 mm 1 mps 741 mmHg 18%

Day after tomorrow, 17 May, Monday

Time Temperature Precipitation Wind Pressure Humidity
00:00 +39°C° 0 mm 1 mps 740 mmHg 19%
01:00 +37°C° 0 mm 1 mps 740 mmHg 19%
02:00 +37°C° 0 mm 1 mps 740 mmHg 20%
03:00 +36°C° 0 mm 1 mps 740 mmHg 20%
04:00 +37°C° 0 mm 2 mps 740 mmHg 21%
05:00 +36°C° 0 mm 2 mps 740 mmHg 22%
06:00 +38°C° 0 mm 2 mps 741 mmHg 19%
07:00 +40°C° 0 mm 1 mps 741 mmHg 16%
08:00 +43°C° 0 mm 1 mps 742 mmHg 14%
09:00 +44°C° 0 mm 1 mps 742 mmHg 12%
10:00 +46°C° 0 mm 1 mps 741 mmHg 11%
11:00 +47°C° 0 mm 1 mps 741 mmHg 10%
12:00 +48°C° 0 mm 2 mps 741 mmHg 10%
13:00 +48°C° 0 mm 3 mps 740 mmHg 10%
14:00 +49°C° 0 mm 4 mps 739 mmHg 10%
15:00 +49°C° 0 mm 4 mps 739 mmHg 10%
16:00 +48°C° 0 mm 5 mps 739 mmHg 10%
17:00 +48°C° 0 mm 5 mps 738 mmHg 10%
18:00 +47°C° 0 mm 5 mps 739 mmHg 12%
19:00 +44°C° 0 mm 4 mps 739 mmHg 13%
20:00 +43°C° 0 mm 4 mps 740 mmHg 14%
21:00 +43°C° 0 mm 4 mps 740 mmHg 15%
22:00 +42°C° 0 mm 4 mps 740 mmHg 17%
23:00 +42°C° 0 mm 4 mps 740 mmHg 18%

18 May, Tuesday

Time Temperature Precipitation Wind Pressure Humidity
00:00 +42°C° 0 mm 4 mps 740 mmHg 19%
01:00 +41°C° 0 mm 4 mps 740 mmHg 19%
02:00 +40°C° 0 mm 3 mps 740 mmHg 19%
03:00 +40°C° 0 mm 3 mps 740 mmHg 20%
04:00 +39°C° 0 mm 2 mps 740 mmHg 20%
05:00 +39°C° 0 mm 2 mps 740 mmHg 21%
06:00 +39°C° 0 mm 3 mps 741 mmHg 21%
07:00 +39°C° 0 mm 3 mps 741 mmHg 21%
08:00 +40°C° 0 mm 4 mps 742 mmHg 21%
09:00 +41°C° 0 mm 5 mps 742 mmHg 20%
10:00 +41°C° 0 mm 6 mps 742 mmHg 19%
11:00 +42°C° 0 mm 6 mps 742 mmHg 18%
12:00 +41°C° 0 mm 5 mps 741 mmHg 19%
13:00 +41°C° 0 mm 4 mps 741 mmHg 20%
14:00 +39°C° 0 mm 3 mps 740 mmHg 21%
15:00 +39°C° 0 mm 3 mps 740 mmHg 22%
16:00 +40°C° 0 mm 4 mps 740 mmHg 23%
17:00 +40°C° 0 mm 4 mps 740 mmHg 24%
18:00 +38°C° 0 mm 4 mps 740 mmHg 25%
19:00 +38°C° 0 mm 3 mps 740 mmHg 26%
20:00 +37°C° 0 mm 3 mps 740 mmHg 27%
21:00 +36°C° 0 mm 3 mps 740 mmHg 26%
22:00 +36°C° 0 mm 3 mps 740 mmHg 26%
23:00 +36°C° 0 mm 3 mps 740 mmHg 25%

19 May, Wednesday

Time Temperature Precipitation Wind Pressure Humidity
00:00 +35°C° 0 mm 3 mps 740 mmHg 26%
01:00 +35°C° 0 mm 3 mps 739 mmHg 26%
02:00 +35°C° 0 mm 3 mps 739 mmHg 26%
03:00 +35°C° 0 mm 3 mps 739 mmHg 26%
04:00 +35°C° 0 mm 3 mps 740 mmHg 26%
05:00 +35°C° 0 mm 3 mps 740 mmHg 26%
06:00 +36°C° 0 mm 4 mps 740 mmHg 28%
07:00 +38°C° 0 mm 6 mps 741 mmHg 30%
08:00 +38°C° 0 mm 7 mps 741 mmHg 32%
09:00 +40°C° 0 mm 7 mps 741 mmHg 29%
10:00 +41°C° 0 mm 7 mps 741 mmHg 25%
11:00 +44°C° 0 mm 7 mps 741 mmHg 22%
12:00 +44°C° 0 mm 7 mps 740 mmHg 22%
13:00 +44°C° 0 mm 7 mps 740 mmHg 22%
14:00 +45°C° 0 mm 6 mps 739 mmHg 22%
15:00 +45°C° 0 mm 6 mps 739 mmHg 21%
16:00 +45°C° 0 mm 6 mps 738 mmHg 20%
17:00 +45°C° 0 mm 5 mps 738 mmHg 20%
18:00 +42°C° 0 mm 5 mps 738 mmHg 22%
19:00 +41°C° 0 mm 4 mps 738 mmHg 25%
20:00 +40°C° 0 mm 4 mps 738 mmHg 27%
21:00 +39°C° 0 mm 5 mps 738 mmHg 29%
22:00 +39°C° 0 mm 5 mps 738 mmHg 31%
23:00 +38°C° 0 mm 6 mps 738 mmHg 33%

20 May, Thursday

Time Temperature Precipitation Wind Pressure Humidity
00:00 +38°C° 0 mm 6 mps 738 mmHg 34%
01:00 +38°C° 0 mm 6 mps 738 mmHg 36%
02:00 +38°C° 0 mm 6 mps 737 mmHg 37%
03:00 +36°C° 0 mm 5 mps 738 mmHg 38%
04:00 +36°C° 0 mm 5 mps 738 mmHg 40%
05:00 +35°C° 0 mm 4 mps 738 mmHg 41%
06:00 +39°C° 0 mm 5 mps 739 mmHg 35%
07:00 +41°C° 0 mm 5 mps 739 mmHg 29%
08:00 +44°C° 0 mm 6 mps 740 mmHg 23%
09:00 +45°C° 0 mm 6 mps 740 mmHg 20%
10:00 +47°C° 0 mm 6 mps 740 mmHg 17%
11:00 +48°C° 0 mm 6 mps 739 mmHg 15%
12:00 +49°C° 0 mm 6 mps 739 mmHg 14%
13:00 +49°C° 0 mm 6 mps 738 mmHg 14%
14:00 +51°C° 0 mm 6 mps 738 mmHg 14%
15:00 +49°C° 0 mm 6 mps 737 mmHg 15%
16:00 +49°C° 0 mm 6 mps 737 mmHg 15%
17:00 +48°C° 0 mm 6 mps 737 mmHg 16%
18:00 +47°C° 0 mm 6 mps 737 mmHg 18%
19:00 +46°C° 0 mm 7 mps 738 mmHg 21%
20:00 +45°C° 0 mm 7 mps 738 mmHg 23%
21:00 +42°C° 0 mm 6 mps 738 mmHg 27%
22:00 +41°C° 0 mm 5 mps 739 mmHg 31%
23:00 +40°C° 0 mm 4 mps 739 mmHg 34%
Show more

We Need Your Consent

Meteoprog and our Service Providers may store and access personal data such as cookies, device identifiers or other similar technologies on your device and process such data to personalise content and ads, as well as provide social media features and to analyse the traffic.

  • Store and/or access information on your device

    Cookies, device identifiers or other information can be stored or accessed on your device for the purposes indicated above.

  • Personalised ads and content, ad and content measurement, audience insights, and products development

    Ads and content can be personalised based on a profile. More data can be added to better personalise ads and content. Ad and content performance can be measured. Insights about the audience who saw the ads and content can be derived. Such data can be used to develop or improve user’s experience, systems and software.

By clicking ‘I Agree’ you will allow the use of indicated cookies, device identifiers, web beacons or other similar technologies. Your settings can be changed in the browser on your device.

For certain purposes, legitimate interests may be relied on, rather than consent. You can read more about this in our Privacy and Cookie Policy.